Home > Weather > Scranton > Past weeks

Flag for U.S.A. Weather for the Past 2 Weeks in Scranton, Pennsylvania, U.S.A.

Now
31 °F

Light snow. Ice fog.


Feels Like: 26 °F
Forecast: 27 / 35 °F
Wind: 5 mph from Southwest

Location: Barre - Scranton - Wilkes-Barre / Scranton International Airport

Current Time: Feb 9, 2016 at 10:22:24 PM

Latest Report: Feb 9, 2016 at 8:54 PM


Visibility: 1 mi

Pressure: 29.57 "Hg

Humidity: 96%

Dew point: 30 °F

Location of ScrantonLocation

Historic Weather in Scranton — Graph

°F

Scranton Temperature Yesterday

Maximum temperature yesterday: 40 °F (at 2:54 PM)
Minimum temperature yesterday: 29 °F (at 11:54 PM)
Average temperature yesterday: 35 °F

High & Low Weather Summary for the Past Weeks

 TemperatureHumidityPressure
High56 °F (Feb 3, 2:54 PM)96% (Feb 4, 12:54 AM)30.39 "Hg (Feb 4, 12:54 AM)
Low20 °F (Jan 28, 6:54 AM)26% (Jan 30, 3:54 PM)29.48 "Hg (Jan 29, 5:54 AM)
Average36 °F62%29.95 "Hg
* Reported Jan 25 8:54 PM — Feb 9 8:02 PM, Scranton, Weather by CustomWeather, © 2016

Note: Actual official high and low records may vary slightly from our data, if they occured in-between our weather recording intervals... More about our weather records

Advertising

Scranton Weather History for the Previous 24 Hours

 ConditionsComfort  
Time TempWeatherWind HumidityBarometerVisibility
8:02 PM
Tue, Feb 9
31 °FLight snow. Ice fog.6 mph96%29.55 "Hg2 mi
7:54 PM31 °FLight snow. Ice fog.6 mph96%29.57 "Hg2 mi
6:54 PM32 °FLight snow. Ice fog.3 mph92%29.56 "Hg2 mi
5:54 PM32 °FLight snow. Ice fog.3 mph92%29.55 "Hg2 mi
4:54 PM32 °FLight snow. Ice fog.5 mph88%29.54 "Hg3 mi
3:54 PM34 °FLight snow. Mostly cloudy.3 mph73%29.52 "Hg5 mi
2:54 PM35 °FMostly cloudy.No wind70%29.50 "Hg10 mi
1:54 PM34 °FMore clouds than sun.No wind73%29.51 "Hg10 mi
12:54 PM33 °FMostly cloudy.5 mph72%29.52 "Hg10 mi
11:54 AM33 °FOvercast.6 mph70%29.55 "Hg10 mi
10:54 AM32 °FOvercast.No wind73%29.58 "Hg10 mi
9:54 AM30 °FLight snow. Overcast.5 mph79%29.60 "Hg4 mi
8:54 AM28 °FLight snow. Mostly cloudy.6 mph81%29.60 "Hg1 mi
7:54 AM28 °FOvercast.3 mph75%29.60 "Hg10 mi
6:54 AM28 °FOvercast.No wind75%29.60 "Hg10 mi
5:54 AM28 °FOvercast.3 mph75%29.59 "Hg10 mi
4:54 AM28 °FLight snow. Mostly cloudy.5 mph81%29.59 "Hg5 mi
3:54 AM28 °FLight snow. Overcast.3 mph75%29.61 "Hg4 mi
2:54 AM28 °FMostly cloudy.6 mph75%29.62 "Hg10 mi
1:54 AM28 °FLight snow. Mostly cloudy.No wind78%29.64 "Hg4 mi
12:54 AM28 °FLight snow. Mostly cloudy.No wind81%29.66 "Hg2 mi
11:54 PM
Mon, Feb 8
29 °FLight snow. Mostly cloudy.6 mph72%29.68 "Hg2 mi
10:54 PM32 °FOvercast.5 mph54%29.68 "Hg10 mi
Weather by CustomWeather, © 2016

See weather overviewHow to use our weather pages